Theta_e
313 312 310 310 311 311 310 308 308 306 305 304 304 304 305 306 310 312 309 312 315 308 311 315 315 316 315 312 311 311 316 317 318 319 317 314 314 313 313 314 314 315 316 315 319
312 312 310 311 310 309 308 306 304 304 304 305 305 306 306 306 311 312 311 314 309 311 312 315 315 314 313 310 309 313 312 312 314 313 313 314 313 314 313 313 313 314 315 315 319
312 313 312 311 310 309 307 305 304 305 307 307 307 307 306 309 314 313 313 308 309 312 315 314 311 312 313 312 312 310 312 311 310 313 314 314 314 313 313 314 314 314 315 315 315
313 313 312 309 309 308 306 305 305 307 308 309 308 307 307 308 315 312 311 308 309 314 314 312 313 313 314 314 312 313 312 313 314 313 313 313 312 313 313 314 314 314 313 314 315
311 312 310 307 306 305 305 305 306 307 309 309 308 309 307 311 311 309 311 310 311 314 313 313 313 313 313 313 312 313 313 313 314 314 313 312 312 312 313 313 314 313 314 314 315
309 310 308 306 306 306 306 306 306 307 310 312 311 310 309 313 310 312 311 311 312 314 314 312 313 312 313 313 313 312 313 314 314 314 313 313 313 312 313 313 314 314 314 314 314
307 309 308 306 307 307 308 308 308 308 311 313 314 313 312 312 313 313 313 312 312 313 313 311 312 313 313 313 313 314 314 314 313 313 314 313 316 313 314 315 315 316 316 315 314
307 307 307 306 308 309 309 310 311 310 311 313 315 314 314 314 314 314 313 313 312 312 313 313 311 312 313 313 314 314 313 315 314 313 314 315 316 316 316 317 317 317 316 315 314
308 307 306 305 309 310 310 311 311 312 313 312 314 315 314 315 314 313 313 314 313 312 311 312 311 312 313 314 314 313 315 314 314 314 314 316 317 316 316 317 318 318 317 316 315
309 308 305 306 308 310 309 311 313 314 313 311 312 310 311 311 311 311 311 313 314 312 311 311 311 313 312 314 315 315 315 315 315 314 315 315 316 316 316 317 318 318 317 317 316
311 308 306 307 309 310 309 309 310 309 309 310 310 309 310 311 310 311 310 312 313 312 313 311 312 313 313 313 313 313 313 315 315 314 315 316 316 316 316 317 317 318 317 317 317
312 309 308 310 311 310 309 309 309 309 313 308 310 311 311 312 312 313 309 311 311 313 310 312 313 313 312 311 312 313 314 315 315 315 316 316 317 317 317 317 317 317 318 317 317
314 310 308 310 309 309 310 309 310 308 314 313 311 312 311 310 311 313 312 310 311 311 312 312 312 311 311 312 313 315 316 316 317 317 317 317 318 317 316 317 317 317 317 317 318
313 311 308 310 309 309 308 309 310 308 312 312 310 310 311 309 312 312 311 312 312 312 312 313 312 311 314 314 315 316 315 316 318 319 321 318 320 318 318 318 317 317 317 316 316
313 311 308 309 309 309 309 310 309 311 317 310 310 309 309 311 310 311 311 311 309 310 311 312 313 314 315 315 315 316 316 316 316 318 318 318 321 318 317 317 318 317 317 317 316
312 312 311 311 309 310 312 310 312 317 317 310 309 310 310 311 310 311 311 311 311 315 314 314 313 314 315 315 315 315 315 315 315 317 320 318 320 318 318 318 317 316 316 314 314
312 312 312 311 311 309 311 312 316 315 310 311 311 311 309 310 311 310 311 310 313 316 314 315 314 314 314 316 313 313 315 319 320 324 321 317 319 319 318 317 317 317 316 314 314
311 311 309 308 309 311 308 312 313 310 311 310 311 311 311 311 311 311 309 310 313 318 316 318 313 313 314 313 313 314 315 318 320 319 318 315 318 316 316 316 316 316 316 316 318
312 311 310 308 310 309 311 313 311 312 311 312 312 311 311 310 310 310 309 311 313 318 314 316 315 312 312 312 313 315 319 317 321 318 319 316 316 316 316 316 318 317 318 319 318
309 308 310 308 309 308 311 310 311 309 312 312 312 311 311 310 309 308 310 312 314 317 315 314 316 312 313 313 313 314 314 320 321 322 321 317 316 316 316 315 318 318 318 318 317
308 313 310 306 306 311 313 311 311 311 311 312 311 311 310 309 308 308 310 311 313 316 316 315 316 313 314 314 314 315 317 317 319 320 320 318 316 316 316 316 318 318 318 317 316
306 315 309 307 311 307 310 309 309 312 311 310 308 309 309 308 312 311 311 312 314 312 313 314 316 316 313 312 313 313 314 316 321 323 321 321 320 315 315 316 317 316 315 315 315
309 309 309 308 314 310 308 309 310 312 311 309 309 308 308 311 313 311 311 311 311 312 311 313 316 319 315 315 314 316 314 315 316 318 321 321 318 316 315 315 315 316 317 316 316
309 313 311 307 306 310 311 311 311 310 310 308 309 308 309 309 308 311 310 309 311 311 311 313 312 317 318 317 315 319 317 316 316 320 319 320 318 316 315 316 317 316 316 316 316
307 310 307 312 312 310 309 310 311 310 309 309 309 308 308 310 310 309 310 309 309 310 313 315 317 316 316 316 316 316 316 315 317 318 319 318 318 316 316 315 314 314 314 315 315
312 312 307 310 308 310 309 311 309 310 310 311 309 309 308 310 310 311 309 309 309 310 314 313 316 316 315 312 312 313 312 312 312 314 317 317 316 313 313 310 311 311 310 311 314
306 304 308 309 309 310 312 310 311 310 311 310 309 309 309 309 308 308 308 308 309 312 311 311 312 315 314 312 312 315 315 314 314 313 314 315 314 311 310 310 310 309 310 310 311
Wind_Speed
22 21 20 19 16 15 14 12 11 10 10 9 9 10 13 16 11 7 5 4 4 8 7 4 6 4 3 3 3 1 2 3 5 5 1 9 9 4 6 7 5 7 13 10 11
22 21 19 17 15 13 11 10 10 10 10 10 10 11 12 14 8 12 5 5 6 9 7 7 5 2 3 3 3 1 1 4 1 2 2 6 7 13 7 7 4 9 9 9 8
23 22 19 17 14 12 10 9 9 10 11 10 11 11 10 7 2 5 6 6 7 9 7 4 2 2 4 3 3 2 1 3 4 3 4 7 9 5 10 9 8 8 13 13 9
24 22 20 16 14 11 9 8 9 11 12 12 11 10 6 4 5 3 3 6 8 9 6 7 4 3 3 3 2 1 3 2 4 4 4 9 5 9 12 12 11 14 12 13 14
27 24 20 15 11 9 8 8 8 10 11 12 11 8 3 5 4 3 2 5 7 6 7 5 10 2 4 2 1 2 2 5 8 12 8 10 12 11 11 15 15 11 12 12 16
31 25 20 12 9 8 8 7 8 8 9 12 11 5 2 12 4 2 2 4 5 4 3 5 4 2 4 2 2 1 5 9 8 5 5 4 7 2 9 11 12 12 13 14 14
36 27 20 10 7 7 7 8 8 6 6 11 10 5 3 5 2 3 3 4 4 3 3 2 3 3 2 5 0 4 9 9 5 2 5 3 10 9 8 9 12 15 14 14 15
40 29 20 8 6 7 9 9 6 3 4 8 7 3 3 2 5 7 8 7 8 8 5 4 1 2 2 2 2 6 2 7 9 10 3 5 17 4 11 10 17 16 13 13 15
44 26 17 9 6 9 11 7 7 5 3 6 4 3 3 4 4 4 5 4 5 3 3 2 0 1 1 4 6 1 10 14 9 7 10 6 17 6 17 15 15 14 14 13 13
46 24 13 9 7 8 11 7 7 5 4 4 4 1 1 4 5 10 7 5 1 4 1 1 2 3 2 4 9 16 17 15 15 8 13 18 23 19 16 17 17 16 14 13 12
47 22 12 10 5 9 11 2 2 1 5 3 4 1 4 8 6 4 4 2 0 1 7 0 6 12 15 12 14 13 15 20 18 15 20 20 23 21 19 18 19 18 14 14 14
49 22 13 7 7 6 12 5 2 2 3 1 2 4 5 4 5 10 2 3 1 11 2 5 15 18 13 10 10 13 16 18 15 14 19 21 26 24 22 24 23 21 18 15 14
48 19 12 5 5 6 7 4 10 5 0 3 2 2 3 3 1 7 8 1 3 5 11 15 17 10 14 17 15 16 14 18 22 19 16 18 20 6 9 16 21 19 18 16 14
47 18 9 2 3 4 2 7 9 8 2 3 2 2 6 4 1 2 4 4 3 8 12 11 6 7 8 11 10 17 13 13 13 12 8 7 12 14 14 18 14 16 15 14 14
46 15 7 5 2 1 6 15 4 2 1 4 1 1 4 3 4 2 2 4 10 17 6 10 10 11 15 15 12 11 5 8 15 17 18 13 8 4 5 14 15 11 10 10 12
44 10 6 5 3 4 13 3 3 1 2 1 3 7 7 4 3 4 5 3 5 4 3 8 13 6 7 2 4 3 7 17 13 7 8 13 13 3 4 6 9 7 4 3 3
40 9 9 7 6 14 6 2 1 1 1 1 5 7 7 6 4 4 10 13 5 6 8 13 5 4 2 4 3 11 12 5 4 4 5 2 6 15 13 19 20 15 13 1 4
37 3 14 15 14 5 1 1 1 1 3 3 5 14 5 4 4 7 11 10 1 2 8 5 6 5 2 6 10 16 5 4 5 4 7 8 8 3 10 15 12 11 4 1 3
30 4 8 24 9 5 2 3 1 1 2 6 12 2 2 2 5 6 8 4 2 5 6 10 6 13 21 17 6 3 6 2 4 11 9 6 7 12 14 12 5 7 7 7 5
14 5 8 23 7 3 3 1 1 2 4 2 3 1 7 12 6 11 5 3 3 6 3 5 16 9 1 4 10 13 1 4 4 4 6 6 11 9 12 9 2 5 6 6 4
6 2 13 17 4 5 3 2 4 3 4 3 3 7 6 5 8 8 5 7 4 2 3 8 6 8 11 6 8 5 8 7 3 5 5 9 4 2 7 6 7 6 3 4 7
5 1 18 15 4 2 2 5 5 4 2 3 2 2 3 5 5 5 5 5 3 7 9 4 3 8 18 21 16 13 14 13 5 5 6 7 14 13 15 10 7 12 12 13 12
3 3 11 9 3 3 4 3 3 3 4 4 3 1 2 3 5 5 7 2 10 2 7 3 4 5 9 2 2 4 7 15 15 9 15 12 11 2 8 14 19 21 20 17 16
3 4 3 4 2 3 4 2 4 3 3 3 4 2 2 3 6 8 15 8 2 15 23 12 6 10 12 17 12 13 17 14 12 6 13 18 25 24 20 19 18 19 18 17 16
3 2 1 3 2 4 2 2 3 3 4 4 3 3 1 6 15 8 7 16 15 16 3 3 5 10 16 20 23 26 25 23 20 14 12 19 23 22 22 15 17 18 20 19 18
2 3 1 3 3 3 3 3 3 4 2 7 6 12 9 12 15 23 20 17 10 4 2 1 3 2 9 18 18 21 22 22 22 20 17 20 24 18 9 13 16 19 21 21 20
3 1 1 1 1 2 2 1 8 8 9 10 12 13 17 17 11 17 20 20 18 8 1 4 3 3 7 13 19 11 3 4 3 4 6 14 23 9 14 18 21 22 19 22 23
Wind_Direction
356 354 353 350 349 349 350 353 354 11 18 22 13 356 345 339 18 49 60 77 42 25 34 103 44 93 70 81 59 144 144 162 168 187 221 349 332 326 303 269 287 280 295 318 332
358 356 354 351 351 351 352 357 15 25 29 22 8 357 351 349 46 56 43 54 46 31 33 39 41 108 77 70 49 70 184 166 187 12 325 333 306 315 303 299 259 285 287 318 322
358 356 355 354 352 351 356 10 21 25 26 19 6 3 356 6 67 26 54 58 38 28 24 35 49 54 72 65 31 130 99 162 142 358 338 306 298 301 292 282 297 290 308 312 313
357 354 354 355 356 356 4 17 17 18 16 12 15 11 19 21 82 6 26 27 13 15 45 44 38 65 71 74 17 249 113 164 317 300 285 281 282 278 277 276 288 290 298 297 305
1 355 353 0 11 16 20 20 11 14 15 14 19 16 38 64 66 349 344 10 23 42 40 36 48 57 66 55 37 120 338 292 302 289 269 268 248 256 260 269 282 286 291 282 300
7 356 353 7 22 27 21 10 1 3 15 13 21 47 61 82 346 326 295 351 25 39 35 47 49 33 96 353 335 229 275 292 287 278 265 256 275 243 245 262 290 285 285 279 279
12 358 355 9 27 24 10 354 347 354 13 15 21 50 70 67 11 1 294 309 328 349 356 86 13 343 313 317 35 295 303 312 207 291 297 278 266 226 260 315 297 303 298 288 264
11 6 0 21 31 13 355 349 358 14 26 15 27 45 69 352 331 310 298 295 294 286 282 317 109 91 287 338 308 306 266 312 318 302 243 296 281 286 280 300 296 295 297 297 279
10 10 13 30 27 2 348 18 25 66 53 22 45 32 76 322 306 309 286 264 302 327 342 248 314 26 193 288 293 283 306 308 311 287 293 257 291 286 295 291 288 286 291 295 295
8 9 19 24 14 12 358 72 57 51 19 39 40 198 44 332 312 316 297 250 287 321 158 52 60 240 197 260 306 310 304 297 294 301 285 284 279 285 280 280 279 280 280 275 275
6 9 14 7 42 34 14 26 5 77 38 20 313 281 287 308 313 347 315 128 205 221 270 99 267 264 283 280 282 283 285 287 291 292 293 293 289 287 280 276 269 268 257 262 259
4 8 14 56 67 57 43 74 86 277 322 21 264 276 272 314 344 20 332 267 253 281 257 261 266 273 282 279 264 273 279 285 291 293 297 292 285 285 271 260 262 261 258 243 246
2 8 24 99 58 45 66 81 344 176 327 325 266 346 7 338 20 1 356 321 281 282 283 267 269 282 278 281 275 273 273 288 299 307 291 290 288 273 282 263 261 259 252 251 246
0 6 25 78 71 11 82 340 333 171 80 5 9 36 359 348 135 335 10 348 304 305 303 273 300 270 289 276 276 282 281 296 301 311 307 346 293 286 289 281 275 264 257 251 249
360 1 18 41 60 53 319 323 151 193 51 1 33 356 354 37 299 343 20 320 314 305 272 289 299 302 291 278 285 293 310 296 297 289 291 252 259 308 275 281 295 288 262 253 248
360 12 15 8 357 342 329 95 136 203 52 359 321 337 331 329 263 307 317 339 321 292 252 279 297 275 269 12 56 1 326 304 292 271 257 260 224 306 285 265 304 306 326 357 241
357 29 49 26 329 316 335 130 275 35 4 350 324 326 316 294 286 314 331 330 337 322 328 323 326 295 324 283 337 329 316 298 261 204 259 42 266 251 272 272 292 296 308 299 252
352 50 28 2 338 344 121 99 47 77 304 336 305 309 286 331 299 322 319 330 195 251 310 339 328 358 44 303 306 298 247 262 289 263 294 288 254 253 262 280 297 298 317 100 141
351 351 13 354 359 344 93 67 159 182 314 309 310 258 255 289 311 332 318 292 253 204 332 314 262 301 290 290 241 166 221 246 267 254 275 233 249 273 268 282 359 26 119 103 62
351 349 11 350 343 20 71 119 266 251 338 304 294 275 303 322 315 340 313 229 258 215 215 297 300 295 33 322 241 232 248 229 215 272 271 255 271 264 284 307 291 69 52 57 7
16 34 355 357 23 47 66 307 294 280 317 249 267 285 297 328 310 309 268 288 239 36 232 307 258 274 303 250 259 202 229 218 281 261 279 300 269 209 279 306 308 287 289 327 344
357 58 352 3 45 42 36 329 322 301 337 303 274 273 302 326 295 283 246 237 80 334 307 305 277 277 280 280 278 262 256 238 236 202 230 278 279 270 276 303 321 315 314 319 324
2 300 355 17 62 19 323 294 278 303 335 321 298 25 329 302 330 249 275 267 328 334 319 321 239 295 295 148 136 211 217 229 241 265 249 267 264 216 304 304 309 309 308 310 305
346 345 8 45 49 52 349 315 312 307 286 339 282 262 329 284 297 279 284 306 308 301 295 272 214 229 257 282 292 278 266 249 217 241 261 246 280 285 296 303 304 304 305 296 288
11 39 36 337 18 337 239 280 291 313 342 316 274 238 342 287 306 269 256 294 298 302 228 221 247 239 248 267 270 271 275 274 259 250 257 280 283 288 290 305 303 298 301 298 292
6 346 11 284 279 284 177 215 244 269 252 287 256 299 290 278 273 284 290 297 286 292 309 326 273 278 283 280 275 278 282 276 266 263 255 267 275 283 295 301 303 305 302 297 298
13 50 305 293 249 259 257 275 314 316 295 236 284 296 290 285 288 275 276 275 261 249 263 272 279 283 280 308 304 282 247 354 306 246 269 271 278 308 302 305 306 304 294 288 285